Regional Weather Roundup
Issued by NWS Upton, NY

Current Version | Previous Version | Text Only | Print | Product List | Glossary On
Versions: 1 2 3 4 5 6 7 8 9 10 11 12 13 14 15 16 17 18 19 20 21 22 23 24 25 26 27
000 ASUS41 KOKX 212105 RWROKX Regional Weather Roundup National Weather Service New York NY 500 PM EDT SAT APR 21 2018 Note: "FAIR" indicates few or no clouds below 12,000 feet with no significant weather and/or obstructions to visibility. NYZ071-072-176-178-NJZ106-104-212200- New York City Metro Area CITY SKY/WX TMP DP RH WIND PRES REMARKS Central Park FAIR 61 20 20 VRB7 30.28F Bronx Bot Gard N/A 61 21 21 W2 30.26F Bronx Lehman C N/A 59 21 23 NW7 N/A LaGuardia Arpt PTSUNNY 62 21 20 NW7 30.26S Queens College N/A 61 21 21 W9 N/A Kennedy Intl PTSUNNY 53 36 52 S18 30.28S Breezy Point N/A 48 N/A N/A S12G17 N/A Brooklyn Coll N/A 61 21 21 SW7 N/A Staten Island N/A 61 21 21 W13 N/A Newark/Liberty PTSUNNY 63 33 32 NW13 30.26F Teterboro FAIR 62 22 21 NW14G22 30.25F $$ NYZ177-179-078>081-212200- Long Island New York CITY SKY/WX TMP DP RH WIND PRES REMARKS Jones Beach N/A 48 N/A N/A SW14G21 N/A Wantagh N/A 54 36 50 W9 N/A Hempstead N/A 59 25 27 N9 30.28F Matinecock Pt N/A 55 N/A N/A W12 N/A Farmingdale FAIR 59 21 23 NW7G18 30.26F MacArthur/ISP FAIR 60 22 23 W14 30.25F Stony Brook N/A 59 25 27 NW7 N/A Shirley FAIR 59 26 28 SW10 30.26F Mt Sinai Harb N/A N/A N/A N/A W6G12 N/A Westhampton FAIR 55 26 32 SW10 30.27S East Hampton FAIR 57 22 26 W7G17 30.23F Southold N/A 57 28 33 W7 N/A Montauk N/A 53 37 54 S8 30.24F $$ NYZ052-065-067-212200- Hudson Valley CITY SKY/WX TMP DP RH WIND PRES REMARKS White Plains FAIR 58 19 22 NW10 30.24F Larchmont Harb N/A 57 N/A N/A W15 N/A Croton On Huds N/A 57 N/A N/A SW16 N/A Somers N/A 59 23 25 W6 N/A Brewster N/A 57 18 21 NW16 N/A Newburgh SUNNY 59 21 23 NW14G21 30.26F Montgomery FAIR 60 21 22 N13G24 30.24F Otisville N/A 55 19 24 W9 N/A Warwick N/A 57 25 28 NW12 N/A Suffern N/A 57 23 26 NW8 N/A Poughkeepsie FAIR 60 17 18 N13G24 30.24F Albany FAIR 58 15 18 NW16G25 30.25F $$ NJZ001-105-106-008-010-013-015-019>022-104-212200- New Jersey CITY SKY/WX TMP DP RH WIND PRES REMARKS Newark/Liberty PTSUNNY 63 33 32 NW13 30.26F Teterboro FAIR 62 22 21 NW14G22 30.25F Caldwell FAIR 61 18 18 W13 30.27F Somerville FAIR 62 20 19 NW9G17 30.26F Linden FAIR 61 22 22 NW14G22 30.27S Perth Amboy N/A 59 N/A N/A W14G21 N/A Sussex FAIR 60 22 23 NW8G16 30.28S Andover N/A 59 20 22 N10 30.27F Trenton FAIR 60 25 26 W8 30.29F Millville FAIR 58 28 32 W8 30.32F Atlantic City FAIR 61 26 26 NW9G21 30.31S Wrightstown FAIR 59 26 28 W8G17 30.28 Toms River FAIR 59 25 27 NW8 30.30F Belmar FAIR 58 25 28 W14 30.30F $$ PAZ047>061-062-071-212200- Eastern Pennsylvania CITY SKY/WX TMP DP RH WIND PRES REMARKS Philadelphia CLOUDY 59 25 27 NW10 30.32S Allentown FAIR 60 24 25 W9 30.29F Scranton FAIR 56 21 25 W14 30.30F $$ CTZ002-004>006-009-010-012-RIZ004-006-007-MAZ004-011-015-212200- Southern New England In CT CITY SKY/WX TMP DP RH WIND PRES REMARKS Bradley Intl FAIR 59 20 22 NW16G23 30.22F Hartford FAIR 60 20 21 NW13G21 30.22S Danbury FAIR 58 18 21 NW13 30.25S Wtrbury/Oxford FAIR 56 19 23 NW12 30.23F Norwalk Harbor N/A 57 N/A N/A W16 N/A Bridgeport FAIR 62 17 17 NW14G20 30.23S Meriden FAIR 60 18 19 N15G21 30.22F New Haven FAIR 60 23 24 NW12G18 30.23F Chester FAIR 61 16 17 NW12 30.21F Groton FAIR 52 33 48 W14 30.21S Willimantic FAIR 60 21 22 NW16G25 30.21F In RI CITY SKY/WX TMP DP RH WIND PRES REMARKS Providence FAIR 60 18 19 NW7 30.20S Block Island FAIR 49 36 61 SW17G24 30.23F Westerly FAIR 54 30 40 SW14G23 30.22F In MA CITY SKY/WX TMP DP RH WIND PRES REMARKS Boston FAIR 58 19 22 N12G24 30.19R Worcester FAIR 54 19 25 NW13G20 30.19S Westfield FAIR 59 21 23 NW18G24 30.22S Provincetown FAIR 52 28 39 S10 30.22S Nantucket FAIR 46 36 68 SW7 30.25S $$ ANZ330-335-338-340-345-350-353-355-212200- Coastal Marine Observations STATION/POSITION TIME SKY/WX TEMP WIND PRES VSBY WAVE AIR SEA DIR/SP/G HT/PER (UTC) (F) (DEG/KT/KT) (MB) (MI) (FT/S) NY Harb Entrance 2050 46 45 200/ 14/ 17 1025.7 1/ 3 20 S Fire Island 2050 46 44 230/ 16/ 17 1025.7 1/ 9 23 SSW Montauk P 2050 45 43 230/ 12/ 16 1024.9 2/ 4 15 E Barnegat Li 2030 45 N/A 2/13 Hudson Canyon 2050 45 45 240/ 8/ 10 1026.4 2/ 4 Kings Point 2036 56 45 20/ 6/ 10 1025.7 Execution Rocks NOT AVBL Western LI Sound NOT AVBL Central LI Sound 2045 48 230/ 12/ 14 N/A 1 Robbins Reef 2048 59 320/ 12/ 15 1025.5 $$ >>>>>>>>>>>>>>>>>>>>>>>>>>>> KEY <<<<<<<<<<<<<<<<<<<<<<<<<<< > < > SKY/WX - Sky Condition/Present Weather < > TMP - Temperature in Fahrenheit < > DP - Dew Point in Fahrenheit < > RH - Relative Humidity in Percent < > WIND - Direction (from) and Speed in MPH < > PRES - Mean Sea Level Pressure (inches of Hg) < > WCI - Wind Chill Index < > VSB - Visibility in Miles < > HX - Heat Index < > TC - Temperature in Celsius < > VRB - Varibale Wind Direction < > < >>>>>>>>>>>>>>>>>>>>>>>>>>>> KEY <<<<<<<<<<<<<<<<<<<<<<<<<<<

USA.gov is the U.S. government's official web portal to all federal, state and local government web resources and services.